Regional Weather Roundup
Issued by NWS Grand Forks, ND

Home | Current Version | Previous Version | Text Only | Print | Product List | Glossary Off
Versions: 1 2 3 4 5 6 7 8 9 10 11 12 13 14 15 16 17 18 19 20 21 22 23 24 25 26 27 28 29 30 31 32 33 34 35 36 37 38 39 40 41 42 43 44 45 46 47 48 49 50

000
ASUS43 KFGF 270610
RWRFGF
PRAIRIE TO PINES  WEATHER ROUNDUP
NATIONAL WEATHER SERVICE EASTERN NORTH DAKOTA/GRAND FORKS ND
100 AM CDT TUE JUN 27 2017

 **SATELLITE DATA USED TO AUGMENT SKY COVER AT AUTOMATED STATIONS**
 *****  WEATHER ACROSS EASTERN NORTH DAKOTA  *****

CITY           SKY/WX    TMP DP  RH WIND       PRES   REMARKS
GRAND FORKS    FAIR      51  43  74 S7        30.00F
6HR MIN TEMP:  49; 6HR MAX TEMP:  75;

GRAND FRKS AFB FAIR      48  42  81 S5        30.01F
DEVILS LAKE    FAIR      60  42  51 S10       29.99F
6HR MIN TEMP:  57; 6HR MAX TEMP:  70;

FARGO          FAIR      56  40  55 S9        30.04F
WAHPETON ARPT  FAIR      52  39  62 S8        30.08S
$$

 ***** WEATHER ACROSS CENTRAL AND WESTERN NORTH DAKOTA  *****

CITY           SKY/WX    TMP DP  RH WIND       PRES   REMARKS
BISMARCK       FAIR      62  38  40 S13       29.98F
6HR MIN TEMP:  58; 6HR MAX TEMP:  76;

MINOT          FAIR      62  42  47 SE9       29.89F
6HR MIN TEMP:  59; 6HR MAX TEMP:  77;

JAMESTOWN      FAIR      54  40  59 S10       30.02F
6HR MIN TEMP:  53; 6HR MAX TEMP:  70;

MINOT AFB      FAIR      59  44  58 SE12      29.88F
GARRISON         N/A     62  42  47 S15       29.92F
WILLISTON      FAIR      71  43  36 S9        29.82F
6HR MIN TEMP:  71; 6HR MAX TEMP:  83;

DICKINSON      FAIR      62  36  37 S21G30    29.89F
6HR MIN TEMP:  62; 6HR MAX TEMP:  77;

HETTINGER      FAIR      61  39  44 SE15G25   29.96F
6HR MIN TEMP:  61; 6HR MAX TEMP:  79;

$$

 *****  OTHER AIRPORT OBSERVATIONS IN OUR AREA  *****

CITY           SKY/WX    TMP DP  RH WIND       PRES   REMARKS
WALHALLA       NOT AVBL
GRAFTON AIRPOR FAIR      48  41  76 S7        30.01S
VALLEY CITY AR FAIR      48  43  81 S9        30.06S
CANDO          NOT AVBL
CAVALIER APRT  FAIR      54  45  71 S3        29.98S
GWINNER        CLOUDY    52  45  76 S9        30.07S
SHEYENNE NWR     N/A     49  41  73 S6        29.95S
ROLLA            N/A     54  45  71 S8G14     29.97F
 ***** THE ABOVE OBSERVATIONS ARE NON NWS ARE NOT QUALITY
       CONTROLLED AND MAY MIS-REPORT RAIN FOR SNOW...
$$

  *****  WEATHER ACROSS NORTHERN MINNESOTA  *****

CITY           SKY/WX    TMP DP  RH WIND       PRES   REMARKS
FLAG ISLAND    FAIR      61  43  51 W8        29.98F
WARROAD        FAIR      52  46  82 S5        30.01F
ROSEAU         FAIR      48  43  81 S5        30.01S
HALLOCK        FAIR      48  43  81 S8        29.99S
THF RVR FALLS  FAIR      53  43  68 S5        30.04S
6HR MIN TEMP:  53; 6HR MAX TEMP:  70;

BAUDETTE       FAIR      49  46  90 SW3       30.01F
6HR MIN TEMP:  48; 6HR MAX TEMP:  69;

WASKISH        FAIR      50  48  93 CALM      30.03F FOG
CROOKSTON      FAIR      48  45  87 SE7       30.03F
STEPHEN NDAWN    N/A     52  39  62 S3          N/A
GREENBUSH NDAW   N/A     50  46  87 S2          N/A
$$
  *****  WEATHER ACROSS CENTRAL AND WEST MINNESOTA  *****

CITY           SKY/WX    TMP DP  RH WIND       PRES   REMARKS
FOSSTON        FAIR      46  43  87 S6        30.05F
BEMIDJI        FAIR      51  44  77 CALM      30.05F
PARK RAPIDS    FAIR      50  42  74 CALM      30.08S
6HR MIN TEMP:  50; 6HR MAX TEMP:  70;

ELBOW LAKE     FAIR      51  45  81 S8        30.10F
6HR MIN TEMP:  51; 6HR MAX TEMP:  68;

WADENA         FAIR      48  43  81 CALM      30.09S
DETROIT LAKES  FAIR      54  50  87 S5        30.08F
MOORHEAD       FAIR      57  39  51 S3        30.06F
FERGUS FALLS   FAIR      55  45  67 S5        30.06F
MORRIS MN      FAIR      54  43  66 S6        30.10S
STAPLES        FAIR      48  43  81 CALM      30.09S
$$
  *****  WEATHER ELSEWHERE ACROSS MINNESOTA  *****

CITY           SKY/WX    TMP DP  RH WIND       PRES   REMARKS
DULUTH         FAIR      53  45  74 W8        30.04S
6HR MIN TEMP:  51; 6HR MAX TEMP:  63; 6HR PCP: TRACE;

INTRNTL FALLS  FAIR      43  41  93 CALM      30.01F
6HR MIN TEMP:  43; 6HR MAX TEMP:  69;

ELY            FAIR      48  46  93 CALM      30.03S
CLOQUET        FAIR      52  43  71 W6        30.05F
WHEATON        FAIR      57  43  58 S8        30.11S
BRAINERD       FAIR      46  43  89 S3        30.09S
6HR MIN TEMP:  46; 6HR MAX TEMP:  69;

HIBBING        FAIR      42  42 100 CALM      30.05R
6HR MIN TEMP:  42; 6HR MAX TEMP:  65;

ALEXANDRIA     FAIR      53  42  66 SW7       30.12S
6HR MIN TEMP:  53; 6HR MAX TEMP:  68;

SAINT CLOUD    FAIR      48  46  93 CALM      30.10S
6HR MIN TEMP:  48; 6HR MAX TEMP:  70;

MINNEAPOLIS    FAIR      59  46  62 S3        30.11S
6HR MIN TEMP:  59; 6HR MAX TEMP:  71;

$$

  *****  WEATHER ACROSS SOUTH DAKOTA  *****

CITY           SKY/WX    TMP DP  RH WIND       PRES   REMARKS
SIOUX FALLS    FAIR      53  48  83 CALM      30.13F
6HR MIN TEMP:  51; 6HR MAX TEMP:  71;

BROOKINGS      FAIR      52  42  69 CALM      30.14S
WATERTOWN      FAIR      53  40  61 SE5       30.11F
6HR MIN TEMP:  51; 6HR MAX TEMP:  68;

HURON          FAIR      54  41  61 SE8       30.09F
6HR MIN TEMP:  54; 6HR MAX TEMP:  72;

SISSETON         N/A     51  43  74 S8        30.08F
ABERDEEN       FAIR      48  41  76 S10       30.08F
6HR MIN TEMP:  48; 6HR MAX TEMP:  72;

MITCHELL       FAIR      55  43  63 S6        30.11F
PIERRE         FAIR      57  42  57 SE13      30.03F
6HR MIN TEMP:  56; 6HR MAX TEMP:  73;

MOBRIDGE       FAIR      62  41  46 SE18      30.01F
RAPID CITY     FAIR      57  40  52 S10       29.99F
6HR MIN TEMP:  56; 6HR MAX TEMP:  80;

$$

  *****  SOME WEATHER IN NEARBY STATES *****

CITY           SKY/WX    TMP DP  RH WIND       PRES   REMARKS
GLASGOW MT     FAIR      75  40  28 E10       29.70F
6HR MIN TEMP:  75; 6HR MAX TEMP:  88; 6HR PCP: TRACE;

GREAT FALLS MT FAIR      72  47  40 SE8       29.77F
6HR MIN TEMP:  72; 6HR MAX TEMP:  93;

CHEYENNE WY    FAIR      60  55  83 S16G29    30.17F
6HR MIN TEMP:  60; 6HR MAX TEMP:  81;

SCOTTSBLUFF NE FAIR      65  46  50 SE12      30.08S
6HR MIN TEMP:  65; 6HR MAX TEMP:  83;

OMAHA NE       FAIR      59  49  69 CALM      30.15R
6HR MIN TEMP:  57; 6HR MAX TEMP:  75;

DES MOINES IA  FAIR      61  44  53 E3        30.15S
6HR MIN TEMP:  60; 6HR MAX TEMP:  73;

DAVENPORT IA   FAIR      51  46  83 NW3       30.14R
6HR MIN TEMP:  51; 6HR MAX TEMP:  69;

CHICAGO IL     FAIR      57  45  64 NW7       30.10R
6HR MIN TEMP:  57; 6HR MAX TEMP:  68;

EAU CLAIRE WI  FAIR      54  48  80 SW3       30.09S
6HR MIN TEMP:  51; 6HR MAX TEMP:  66;

LA CROSSE WI   FAIR      57  50  77 S5        30.11S
6HR MIN TEMP:  56; 6HR MAX TEMP:  73;

$$

  *****  SOME NATIONAL WEATHER *****

CITY           SKY/WX    TMP DP  RH WIND       PRES   REMARKS
LA GUARDIA NY  MOCLDY    73  51  46 SW8       29.96F
6HR MIN TEMP:  72; 6HR MAX TEMP:  74;

RALEIGH NC     MOCLDY    65  59  81 CALM      30.02F
6HR MIN TEMP:  65; 6HR MAX TEMP:  76;

ATLANTA GA     MOCLDY    72  59  63 NW6       30.09F
6HR MIN TEMP:  72; 6HR MAX TEMP:  81;

NEW ORLEANS LA MOCLDY    79  72  79 SE5       30.03S
6HR MIN TEMP:  79; 6HR MAX TEMP:  86;

OKLAHOMA CITY  FAIR      70  61  73 S8        30.07S
6HR MIN TEMP:  70; 6HR MAX TEMP:  85;

ALBUQUERQUE NM FAIR      69  47  45 E5        30.22S
6HR MIN TEMP:  64; 6HR MAX TEMP:  88; 6HR PCP:  0.48;

SALT LAKE CITY MOCLDY    83  36  18 SE9       29.83S
6HR MIN TEMP:  83; 6HR MAX TEMP:  99;

LOS ANGELES CA FAIR      69  56  62 SW7       29.89S
6HR MIN TEMP:  69; 6HR M



USA.gov is the U.S. government's official web portal to all federal, state and local government web resources and services.